Wind_Speed
0 3 3 4 5 2 1 2 3 3 4 7 10 10 7 8 6 6 12 15 15 14 14 13 11 9 9 9 8 8 9 10 10 10 11 12 12 12 13 13 13 13 13 14 16 17 18 19 19 18 17 17 15 13 12 12 13 12 12 11 9 7 11 13 14 14 14 16 17 18 19 19 19 21 21 20 20 20 21 21 21 21 22 22 22 22 22
1 1 2 3 4 3 4 5 3 4 4 3 5 6 5 7 4 12 18 16 14 13 13 12 10 9 9 8 7 8 8 9 9 10 11 12 12 12 12 12 12 12 13 14 15 16 17 18 18 18 17 16 16 14 12 12 13 13 13 12 11 9 7 7 9 11 11 12 14 15 16 17 18 18 19 20 21 21 21 22 21 21 21 22 22 22 22
3 3 3 3 5 5 5 5 4 5 5 3 4 4 2 2 7 16 19 17 12 10 12 13 11 9 9 9 8 8 8 8 9 9 10 11 11 11 12 11 11 11 12 14 15 15 16 16 16 15 15 15 15 14 12 11 11 12 13 14 14 12 10 8 8 8 9 10 10 10 12 14 16 17 18 19 20 21 21 22 22 21 21 21 22 22 22
4 4 4 4 5 6 7 7 7 7 6 4 3 1 1 5 11 15 15 13 10 10 11 12 11 10 10 10 9 8 7 8 9 9 10 10 10 11 11 11 11 11 11 13 15 15 14 14 14 14 13 13 14 13 12 11 10 10 11 13 15 15 12 9 9 8 7 9 11 11 11 12 13 15 16 17 19 20 21 22 23 23 22 22 22 22 22
4 6 4 3 4 7 7 6 6 6 3 1 3 1 1 6 12 11 8 9 11 12 12 11 12 12 10 9 8 7 7 7 8 9 9 9 9 10 10 10 10 11 11 12 14 14 13 13 12 12 13 13 13 13 12 12 11 10 11 12 12 14 13 10 8 7 8 10 11 11 13 15 15 15 15 17 18 20 21 21 21 22 23 23 22 22 22
5 7 4 4 7 7 3 3 3 1 1 1 3 3 4 6 8 6 6 11 14 13 12 12 11 11 9 7 6 6 6 6 6 8 8 8 8 9 9 10 10 10 11 12 12 13 13 13 12 12 12 12 12 12 13 13 12 10 11 12 11 12 13 9 5 8 13 14 14 13 14 15 16 16 15 17 17 18 20 20 20 21 22 22 22 22 22
4 5 5 7 7 3 3 5 4 3 2 1 3 5 6 6 8 11 13 15 15 13 12 11 9 9 10 8 6 6 6 5 5 6 7 7 8 8 8 9 9 10 11 12 12 12 12 12 13 13 13 12 12 12 12 13 13 12 10 11 12 12 12 9 6 8 12 13 13 15 14 14 15 15 16 17 17 17 19 19 17 18 19 20 21 22 22
3 3 6 6 3 5 4 4 3 1 1 3 4 6 5 4 7 13 14 14 14 13 12 11 9 9 10 8 6 7 7 5 4 5 6 6 7 7 8 8 9 9 11 12 12 12 11 11 12 13 14 14 13 12 12 12 12 12 11 11 12 12 11 9 8 10 12 13 13 14 12 13 16 17 17 18 17 16 19 20 17 16 19 20 20 21 22
4 5 6 4 5 5 5 4 4 2 3 4 3 3 5 5 3 9 13 12 12 12 11 10 9 8 8 7 7 8 8 7 6 5 5 5 6 7 8 8 8 8 10 12 11 11 10 10 12 13 13 13 12 11 12 12 11 11 12 12 12 12 12 12 12 11 11 12 13 14 12 13 17 18 18 19 18 16 17 20 20 20 20 20 21 22 22
4 6 6 5 6 5 5 7 7 3 1 1 2 3 5 7 4 7 11 10 9 10 10 9 8 7 7 7 7 7 7 7 6 5 5 5 5 6 7 8 8 8 11 12 11 10 10 10 11 12 12 12 11 11 12 12 11 11 11 12 13 13 12 13 13 12 11 11 12 14 15 14 15 16 18 18 18 18 19 21 23 23 21 20 21 22 22
5 6 6 6 6 2 5 9 8 5 2 1 1 5 5 8 7 7 10 10 9 9 10 9 7 7 6 6 6 6 5 5 4 4 4 4 4 5 6 7 8 9 11 11 10 10 10 10 12 12 11 11 11 11 12 12 11 11 11 12 13 14 13 13 13 13 13 12 12 13 15 16 16 14 16 19 19 20 20 21 23 24 23 22 22 22 22
5 6 6 5 2 3 8 9 7 5 3 2 4 6 5 9 10 8 8 10 9 8 7 6 6 7 3 5 6 4 3 4 4 4 4 4 5 5 6 7 8 9 10 9 9 11 11 11 12 12 11 10 10 10 11 11 11 11 12 12 13 14 14 14 14 14 13 13 13 13 14 16 17 16 15 18 19 20 19 20 22 24 23 22 22 23 24
6 6 7 5 1 6 9 8 7 6 4 4 6 3 3 7 8 5 5 8 8 6 5 5 6 3 3 4 3 3 3 3 4 4 5 5 6 7 7 8 8 8 8 7 9 10 10 11 12 11 10 11 10 10 10 10 10 11 11 12 13 14 14 15 14 13 13 13 13 13 13 14 16 16 15 16 17 19 20 22 24 26 25 24 24 24 23
6 5 6 6 2 5 7 8 8 6 4 3 2 4 4 5 7 5 3 4 6 6 5 3 3 1 3 1 1 3 4 3 3 4 4 5 6 7 8 9 8 8 8 8 9 9 10 10 11 11 11 11 11 11 11 10 11 11 11 12 13 13 14 14 14 13 13 13 13 13 12 13 15 16 15 15 16 17 18 21 24 25 24 23 24 25 23
6 5 6 6 2 5 8 8 7 5 4 1 5 6 5 5 6 5 4 4 4 5 4 3 2 2 3 3 3 4 3 3 3 3 5 5 6 7 8 9 9 10 10 10 10 11 11 10 10 10 11 11 11 12 12 12 12 11 11 12 13 13 14 14 14 13 13 13 13 13 12 13 14 16 16 16 17 18 18 19 21 23 22 22 24 25 24
5 5 4 2 1 6 8 5 2 2 2 4 5 5 5 5 5 4 3 4 4 2 2 1 1 2 3 4 4 4 4 4 4 4 5 5 5 6 7 8 9 10 11 11 12 12 11 11 11 10 10 11 11 12 12 12 12 12 12 13 13 13 14 14 14 15 14 13 13 13 13 13 14 15 15 16 17 18 18 19 20 20 19 19 20 21 22
4 4 1 2 3 6 7 3 2 4 6 5 3 2 3 4 4 3 3 4 5 3 1 1 2 2 2 3 3 4 5 5 5 6 6 6 6 6 7 8 10 11 12 12 13 13 12 12 12 12 11 12 12 12 12 12 12 12 13 13 13 13 14 14 15 16 15 14 14 14 13 13 14 15 15 16 17 18 18 18 18 18 17 16 16 17 19
5 5 3 2 2 4 6 4 3 5 5 5 4 3 3 3 4 3 3 4 5 3 2 2 2 2 0 1 3 4 5 6 6 7 7 7 7 7 7 8 10 12 14 14 14 14 13 13 13 13 12 13 14 14 13 13 13 13 13 13 14 14 14 15 15 15 16 16 15 15 14 14 14 15 16 17 17 17 18 18 17 16 16 15 14 15 16
4 3 4 6 5 5 6 6 5 5 4 4 4 5 4 4 4 4 4 3 4 4 3 2 3 1 1 2 3 3 3 5 6 7 8 8 8 8 8 8 9 11 13 14 15 16 16 15 15 14 14 14 14 15 15 14 14 14 14 15 15 15 15 15 15 15 16 17 17 17 16 16 16 15 15 15 15 15 16 17 16 16 16 16 14 14 14
7 4 2 3 4 5 6 7 6 6 6 6 6 5 5 4 5 5 5 5 4 4 4 4 3 2 2 2 2 2 3 4 5 7 8 9 9 10 10 10 9 9 10 12 15 17 18 17 17 16 15 15 15 16 16 16 15 15 15 15 16 16 16 16 16 16 16 17 18 18 18 17 15 14 14 14 15 15 16 16 15 15 15 15 14 13 12
9 8 6 7 7 6 8 9 8 7 7 7 8 7 6 6 7 7 7 6 5 4 4 4 4 4 3 2 2 3 3 4 5 7 8 9 11 12 12 12 11 11 11 12 14 16 17 18 18 18 17 16 16 16 16 16 16 16 15 16 16 17 17 17 16 16 16 16 16 17 17 16 15 14 16 16 17 18 19 18 19 19 20 21 19 17 15
7 4 2 3 5 5 6 8 9 10 9 9 9 9 8 8 8 7 7 7 6 5 5 4 4 3 2 2 2 3 4 4 6 7 9 10 11 12 13 14 14 14 14 14 14 15 16 17 18 18 18 18 17 16 16 15 16 17 17 17 17 17 17 17 16 16 16 16 16 15 15 16 17 17 18 19 19 21 23 25 26 27 27 27 26 23 23
7 4 6 6 4 4 4 4 5 7 8 9 10 11 10 10 9 8 8 8 7 6 5 5 4 3 3 3 4 4 5 6 6 8 10 11 12 13 14 16 16 17 17 16 16 16 16 16 16 17 18 18 18 17 17 16 16 17 18 18 18 18 17 17 17 17 17 17 17 17 17 18 19 20 20 21 21 23 25 26 26 25 23 23 22 21 24
9 7 8 8 6 6 7 8 6 5 7 9 10 10 10 10 10 10 9 8 7 6 5 5 5 5 5 6 6 6 7 7 8 9 10 11 12 14 15 16 17 18 18 18 18 17 16 16 16 17 17 18 18 19 19 18 18 19 19 19 19 19 19 19 19 18 18 18 18 18 19 19 19 20 21 21 22 22 21 21 22 21 21 20 19 19 21
10 9 9 10 9 8 8 9 8 8 8 9 9 9 10 10 12 12 11 9 8 7 6 6 6 6 6 7 7 7 8 8 9 9 10 11 13 14 15 16 16 17 18 19 19 18 18 18 18 19 19 19 19 20 20 20 20 20 20 20 21 21 21 21 20 20 20 19 19 19 19 18 18 19 19 20 21 21 20 20 21 22 22 21 21 21 21
10 10 10 12 13 10 8 9 10 10 11 11 10 10 10 11 12 12 12 11 10 9 8 7 7 6 7 7 7 8 9 9 9 10 11 12 13 14 15 16 16 17 19 19 20 21 21 21 22 22 22 21 20 20 21 21 22 23 23 22 22 23 23 23 23 22 22 21 20 20 19 19 19 19 19 20 21 21 21 21 20 21 21 21 21 21 21
9 9 9 11 12 12 11 11 11 11 13 13 12 11 12 12 10 11 13 13 11 10 9 7 6 6 7 8 8 9 9 10 10 11 12 12 14 15 15 16 17 18 19 20 21 21 22 23 23 23 23 23 22 23 23 23 24 25 26 25 24 24 25 25 25 25 24 23 22 22 21 20 20 20 21 21 21 21 21 20 20 20 21 21 20 20 21
9 9 9 11 12 11 10 11 12 13 14 14 13 13 14 13 11 11 12 12 11 10 9 8 8 9 8 8 8 9 10 11 11 11 12 13 14 15 16 17 18 18 18 19 20 21 21 22 23 24 24 24 25 25 26 26 26 27 27 27 26 25 25 25 24 24 25 25 24 22 21 21 21 21 21 21 21 21 21 21 21 21 21 21 20 19 21
8 7 8 11 13 11 9 10 10 11 12 13 13 13 15 14 12 12 11 11 11 10 9 9 11 10 7 7 8 9 10 11 11 12 13 15 15 16 16 17 18 18 19 19 20 20 20 21 22 23 24 24 26 27 27 26 27 27 27 27 27 26 25 24 23 23 23 23 23 22 22 22 22 22 22 22 21 21 21 22 22 21 21 21 20 20 19
7 6 7 9 11 12 11 10 10 10 11 12 12 13 14 14 12 11 11 11 11 9 9 10 11 7 5 7 9 10 10 11 12 13 15 15 16 16 16 17 17 18 18 18 18 18 19 20 22 23 24 24 25 27 27 25 26 26 26 27 27 27 26 25 25 24 24 24 24 23 23 23 23 23 23 22 22 22 22 22 22 21 21 20 20 20 18
8 8 8 8 10 12 11 9 10 10 10 10 11 12 13 13 12 11 10 9 9 9 10 10 8 6 6 8 10 10 11 12 13 14 15 15 16 16 16 16 17 17 17 18 18 19 20 20 21 23 23 23 25 25 25 24 24 25 25 25 26 27 27 27 27 27 28 28 27 26 25 24 24 24 23 23 22 22 22 22 21 21 21 20 19 19 18
8 8 7 6 8 10 10 8 8 8 8 9 10 11 10 9 7 7 7 8 9 10 9 7 6 6 8 9 9 10 11 13 14 15 15 15 15 15 15 16 17 18 18 19 19 20 20 20 21 22 22 22 23 24 24 23 23 23 24 24 25 26 25 25 26 27 28 28 29 28 27 26 25 25 25 24 23 23 23 22 21 21 20 20 20 18 16
8 7 5 3 4 8 9 8 8 8 8 6 4 3 3 2 1 4 7 10 10 9 7 5 5 7 8 8 9 11 12 13 14 14 14 14 14 14 15 16 17 18 19 19 19 20 20 19 21 22 21 21 23 24 24 23 23 23 24 24 25 25 26 26 26 27 27 27 27 27 27 26 26 26 25 25 24 24 23 22 22 21 21 21 21 19 18
7 8 6 3 4 7 9 8 7 8 7 6 3 2 3 5 7 9 10 10 9 6 4 3 4 6 7 8 10 11 11 11 11 12 13 14 15 15 16 17 18 18 19 19 19 19 19 19 20 20 20 21 23 24 23 23 23 22 23 24 25 26 27 27 26 26 26 27 26 26 26 26 26 26 25 24 24 23 23 22 22 22 22 23 22 21 20
7 7 8 6 5 6 8 8 8 8 8 8 8 8 9 11 12 9 5 5 5 3 1 2 4 6 8 9 9 10 10 9 10 11 12 14 15 15 16 17 17 17 18 17 17 18 19 19 18 19 21 22 24 24 23 23 22 21 22 24 26 28 28 27 26 26 26 26 25 26 26 26 26 26 25 24 24 23 22 22 22 22 23 23 23 22 22
10 7 7 7 4 3 5 7 7 10 10 9 10 11 13 14 13 7 6 4 5 4 2 3 5 6 7 8 8 8 9 9 10 11 12 13 14 15 16 16 16 16 17 17 16 17 18 18 18 20 23 24 23 23 22 22 22 22 22 23 25 26 26 25 25 25 26 26 26 26 25 25 25 25 24 24 24 23 22 22 21 20 21 23 23 23 22
12 10 7 6 4 1 1 3 2 7 10 11 12 13 13 13 10 6 6 5 5 4 4 4 5 5 6 6 7 7 8 9 9 11 12 13 14 15 15 15 15 15 15 16 16 18 18 19 20 22 23 22 22 22 22 21 22 24 24 23 23 23 23 22 21 21 24 27 28 27 26 24 24 24 24 24 24 23 22 21 20 20 21 23 24 24 22
14 12 8 6 4 3 2 0 2 6 9 11 13 12 9 8 8 6 5 5 5 4 4 3 4 4 5 5 7 7 8 8 9 11 12 12 13 13 13 14 14 14 15 16 19 19 19 20 22 23 22 21 21 22 23 22 23 24 23 23 22 22 23 23 20 19 20 23 25 26 27 25 22 21 21 22 22 22 20 20 20 20 21 22 23 23 22
12 12 9 7 6 5 3 2 6 11 13 12 12 11 9 8 8 7 6 5 4 2 2 2 2 4 4 5 6 7 7 8 9 10 11 12 12 13 13 13 13 14 16 19 20 21 21 22 23 23 21 21 21 22 22 23 23 23 23 22 22 22 22 22 20 19 20 21 22 24 26 25 21 19 18 19 19 19 19 18 19 19 19 21 23 23 22
10 11 10 9 9 8 7 7 9 12 13 11 10 10 9 9 8 7 6 5 4 3 1 2 2 3 3 4 6 6 6 7 8 9 10 11 12 12 12 12 13 16 18 20 21 22 22 22 22 21 19 20 21 21 22 23 24 23 23 22 22 22 22 21 21 20 20 19 19 20 21 20 20 19 18 17 17 18 19 19 18 18 18 20 22 22 21
11 12 11 10 8 6 6 5 6 7 9 10 10 10 10 9 8 7 6 5 5 3 2 1 1 2 3 4 5 5 5 6 7 8 9 11 12 11 11 12 14 17 19 21 23 22 21 20 19 19 19 20 21 22 24 25 24 23 22 22 22 22 21 21 20 20 19 19 19 18 18 17 17 17 16 16 17 18 18 18 19 20 20 20 19 19 18
13 13 13 10 5 3 4 3 4 6 9 11 11 11 11 9 8 7 7 6 5 4 3 3 2 2 3 4 4 5 5 6 7 8 9 10 11 11 11 13 15 17 19 22 23 21 19 19 18 18 20 21 22 24 26 26 24 22 21 20 20 20 20 19 19 19 18 17 17 17 17 16 16 16 17 17 18 17 16 16 17 18 18 18 17 16 15
13 13 12 11 7 7 8 9 9 10 11 12 12 12 11 10 9 9 8 7 6 5 4 4 3 2 3 4 4 5 5 6 7 8 8 9 9 9 10 13 15 16 18 21 21 19 18 18 19 20 22 23 23 24 26 24 21 18 18 18 18 18 17 17 16 16 14 14 15 16 16 17 16 17 17 17 15 14 13 14 15 15 16 16 15 14 12
12 11 10 10 8 8 11 13 13 12 11 10 10 11 11 11 11 10 9 8 7 6 5 4 3 3 3 4 4 5 6 6 7 8 8 9 9 9 11 12 14 15 18 20 20 18 18 19 20 21 22 23 22 22 21 19 17 16 16 15 15 16 15 14 14 13 12 13 14 15 15 16 16 16 15 14 13 12 13 13 13 14 14 13 13 12 10
9 9 9 9 7 7 11 14 15 16 15 12 10 11 11 11 11 11 9 9 8 6 5 4 3 3 3 4 5 5 5 4 6 8 9 8 9 11 12 13 14 16 17 18 18 17 17 19 21 20 21 22 21 18 17 15 15 14 14 14 14 14 14 13 13 12 11 11 11 11 11 12 13 12 11 11 11 11 11 11 11 11 11 11 10 9 8
7 7 8 7 5 7 10 11 14 17 17 14 12 11 11 12 11 10 10 9 8 6 5 4 3 2 3 4 5 5 4 4 4 6 8 8 8 10 12 12 13 15 15 16 16 16 17 20 21 21 21 21 19 15 14 15 16 14 13 13 13 13 13 13 13 12 12 11 10 9 9 9 9 9 8 9 9 8 7 7 8 7 7 7 6 5 4
4 5 7 5 7 12 13 13 15 16 15 14 13 12 12 12 12 10 9 9 8 6 5 4 3 2 2 2 3 5 6 6 5 6 7 8 8 10 11 11 13 14 14 14 14 15 16 19 21 21 20 20 19 15 14 16 16 15 14 14 13 13 14 14 13 13 12 12 11 10 9 9 8 8 7 6 6 4 4 4 5 4 3 3 2 1 1
3 5 6 4 11 17 19 17 15 14 13 13 13 13 12 12 11 10 10 9 8 6 5 4 3 2 1 1 1 3 6 7 7 7 8 9 9 11 11 11 12 13 13 13 14 15 16 18 20 20 19 18 17 16 16 16 16 15 15 14 14 14 14 15 15 14 14 13 13 12 11 11 10 8 6 5 4 3 3 3 2 1 1 0 1 2 3
2 2 3 8 13 17 18 16 13 13 12 13 14 13 13 12 11 10 9 8 6 5 5 4 3 2 1 2 1 3 5 5 6 7 7 8 9 10 11 11 11 12 13 13 14 15 16 17 18 19 18 16 15 15 16 16 15 14 14 14 14 14 15 14 15 15 14 14 14 13 12 12 11 10 8 7 5 4 3 4 4 4 3 3 4 5 6
8 9 13 14 14 14 14 12 11 11 13 13 13 13 13 12 11 9 8 7 5 4 4 3 2 1 0 1 2 2 3 4 5 6 7 8 8 9 11 11 10 10 12 13 13 14 15 17 17 17 17 17 15 15 16 15 15 14 14 15 15 16 15 15 15 15 14 13 13 13 13 13 12 11 10 9 8 7 7 6 6 6 6 7 7 8 9
13 11 11 12 11 11 11 11 10 11 12 12 12 13 12 11 9 9 8 6 4 3 3 2 2 2 2 2 2 3 4 4 5 5 6 8 9 9 10 10 9 9 10 12 12 12 14 15 15 15 16 17 17 16 15 14 14 15 15 16 17 17 17 17 17 17 16 15 15 15 14 14 14 13 12 12 11 11 10 9 9 9 9 8 9 10 11
9 7 7 8 8 7 8 9 10 10 11 11 10 10 10 9 8 8 7 6 4 3 3 2 2 2 3 3 4 5 5 6 6 6 6 8 9 9 10 10 10 10 10 10 10 11 12 13 14 14 15 16 16 16 15 14 14 15 16 16 16 16 17 17 18 18 17 17 17 18 17 16 16 16 15 15 14 14 14 13 12 12 13 12 12 12 13
Wind_Direction
343 340 327 314 314 320 242 249 229 230 235 235 240 241 255 282 267 176 149 146 141 142 148 144 139 135 121 110 109 102 98 95 88 82 79 74 68 61 53 48 46 44 41 40 37 36 38 37 35 33 28 23 23 25 20 14 9 359 349 345 335 284 250 244 236 226 220 216 212 210 212 214 215 218 221 221 219 215 212 210 210 213 215 212 209 208 209
190 283 293 281 280 258 237 242 244 252 248 241 250 245 253 269 216 145 142 142 136 139 145 140 139 136 125 116 110 103 99 94 85 77 74 71 68 64 57 50 45 44 42 40 38 36 37 37 36 32 26 20 17 18 18 11 0 351 343 340 338 326 304 287 273 258 245 236 223 213 213 216 216 219 222 223 224 222 219 217 214 215 218 217 214 212 211
205 229 249 241 253 251 235 228 231 238 230 219 232 223 197 166 132 133 137 136 135 144 141 133 135 136 128 123 115 107 101 90 83 76 68 66 64 62 61 54 47 44 41 38 36 35 35 36 36 34 28 22 19 18 20 14 359 348 341 337 334 333 336 343 335 308 283 282 276 250 233 224 218 220 224 225 227 227 224 223 221 219 221 222 221 218 216
205 193 232 232 238 248 240 226 218 220 225 219 197 186 172 146 139 139 141 139 141 148 143 139 143 143 136 130 120 106 92 81 78 75 68 66 61 57 58 55 48 42 40 38 35 32 31 32 34 35 32 26 23 20 19 17 8 357 349 344 344 346 345 343 339 321 292 302 306 282 263 252 235 229 230 229 229 229 226 224 223 221 222 224 226 227 226
193 160 201 242 230 235 234 217 203 204 215 174 127 104 61 144 156 161 154 146 146 146 148 152 154 150 144 134 123 106 88 77 73 71 66 62 59 55 51 53 50 41 36 37 34 29 27 26 29 34 33 30 26 19 15 15 12 10 8 2 357 359 2 359 338 301 275 288 298 279 263 260 252 245 240 236 235 233 229 225 223 223 223 224 226 228 231
198 144 153 230 225 223 211 89 91 116 143 185 171 149 103 121 158 167 124 129 143 149 155 158 155 150 139 121 117 118 104 82 69 68 61 52 53 52 46 44 45 38 32 32 33 28 24 22 25 29 30 30 27 20 17 15 10 9 15 17 15 8 4 4 337 288 284 291 293 285 273 268 265 263 260 253 247 244 240 232 225 224 224 225 226 227 229
227 137 162 219 219 192 83 76 72 48 23 24 101 106 90 92 128 133 125 134 147 152 149 145 143 144 140 133 132 128 113 87 74 75 65 49 42 42 42 39 36 31 26 24 25 22 18 18 21 22 21 22 23 21 20 16 8 6 15 23 24 15 5 3 350 319 313 309 298 289 284 278 272 271 273 269 264 265 265 257 242 233 232 229 228 229 229
235 174 196 213 172 118 94 90 100 89 169 162 138 130 116 87 122 139 138 139 145 144 139 139 147 155 152 148 137 125 115 98 82 71 61 52 37 29 31 31 29 26 19 16 16 11 8 15 19 16 14 13 13 15 18 15 7 5 13 21 20 16 10 6 358 342 335 331 319 303 290 275 263 259 260 258 256 266 275 270 260 248 241 235 230 229 230
235 231 215 181 145 158 170 163 159 179 187 177 198 194 146 119 121 139 137 140 148 150 148 150 159 169 174 169 151 136 127 115 103 86 71 62 42 25 20 16 19 23 15 8 6 1 360 9 14 11 8 7 7 9 9 6 3 4 10 15 12 7 5 3 360 352 341 335 328 316 301 283 269 265 263 255 246 244 248 248 247 243 241 241 236 231 229
234 255 241 201 199 210 179 152 140 111 61 89 320 268 164 150 156 143 144 157 164 160 161 160 158 179 196 185 160 142 128 118 114 106 89 71 46 29 13 359 3 12 5 357 353 349 352 2 5 1 359 1 3 6 4 357 355 360 7 8 3 359 358 357 354 349 342 337 332 323 313 303 287 272 266 262 254 247 242 242 244 242 241 244 243 237 233
236 253 253 231 231 215 114 121 123 118 103 96 235 245 198 161 157 157 160 170 178 184 183 167 167 200 204 166 141 132 115 98 89 81 71 50 32 19 360 355 2 359 348 342 339 338 346 355 353 348 350 354 356 0 359 351 349 355 2 2 355 350 350 350 350 347 342 339 337 329 321 318 313 295 275 266 258 252 249 246 244 244 243 242 241 239 238
245 244 249 251 251 118 119 124 125 126 129 172 218 225 189 150 147 153 164 165 175 201 197 171 193 221 193 118 116 109 94 81 62 41 23 16 12 355 346 1 3 343 329 330 332 335 344 348 341 338 342 345 347 351 348 344 345 351 354 352 347 341 341 343 344 343 340 340 340 334 325 319 319 314 297 278 262 252 250 249 249 248 245 242 242 241 239
237 233 246 252 115 106 125 131 122 120 140 212 225 201 130 139 142 145 172 166 162 182 190 188 209 209 86 94 107 81 64 61 46 20 4 1 356 346 347 355 348 328 321 330 330 330 336 335 330 333 336 334 335 337 334 333 338 342 344 342 337 334 334 335 333 331 331 335 335 332 329 322 316 314 307 290 272 261 257 258 258 256 251 249 249 247 244
248 241 250 251 195 122 132 127 118 139 187 214 164 111 106 130 133 134 168 156 149 173 195 217 238 353 49 55 51 45 40 38 30 15 10 3 351 346 344 340 337 331 330 331 327 324 328 327 325 328 328 325 325 325 322 323 327 330 333 333 329 327 325 324 323 323 325 327 325 322 324 324 320 316 309 297 285 276 268 266 265 263 262 260 257 255 255
248 238 242 258 248 139 148 141 135 180 222 143 121 131 127 122 127 139 156 142 147 181 201 217 259 319 336 332 356 10 9 22 26 19 22 13 355 347 337 332 340 340 333 330 328 325 324 323 323 323 320 318 318 314 313 316 319 319 323 325 322 319 317 315 316 317 317 318 317 314 313 314 313 311 309 302 293 284 275 270 268 266 264 263 260 260 262
243 236 229 266 77 136 154 160 148 157 127 107 131 146 135 136 147 158 167 153 146 171 210 216 272 313 314 320 340 347 348 1 8 10 17 10 353 344 335 334 343 340 331 328 326 323 321 322 322 320 316 312 308 306 307 311 312 313 315 315 313 309 308 307 308 310 310 310 309 307 307 305 299 296 298 297 290 282 274 269 268 266 263 261 260 260 262
265 280 328 43 95 145 160 160 82 104 114 119 133 130 129 150 160 160 163 151 140 148 197 226 252 267 287 319 336 337 335 341 350 354 356 354 349 342 334 337 340 333 325 322 319 318 320 322 321 318 315 311 306 305 307 309 308 306 306 306 306 304 303 302 301 303 303 302 300 299 297 296 291 290 291 288 284 282 278 274 271 269 267 265 263 263 265
266 276 252 196 153 159 168 163 122 123 137 146 158 182 185 165 154 152 148 136 135 150 177 209 234 242 264 326 317 322 327 332 339 342 339 339 341 338 335 338 336 328 322 319 317 316 318 320 320 318 315 312 308 308 308 306 303 301 300 301 300 298 296 295 295 297 298 298 297 296 293 290 286 283 280 274 270 272 275 275 275 273 273 271 266 267 269
250 248 212 201 205 197 191 186 163 160 183 185 180 197 201 172 161 159 143 133 148 159 169 197 222 235 244 271 291 313 320 319 325 328 329 331 333 331 331 331 328 324 320 318 318 318 317 318 319 316 313 311 309 308 308 306 302 301 300 299 297 295 293 292 291 292 293 293 293 292 290 285 280 274 272 272 271 270 271 274 275 274 273 271 266 266 267
242 247 202 197 222 218 210 211 200 191 200 203 197 200 196 180 176 169 158 159 171 175 179 189 201 211 218 235 266 285 294 305 315 318 320 322 321 321 322 321 320 319 315 313 314 313 313 314 315 313 311 310 309 308 308 307 305 302 299 297 295 293 292 289 287 285 283 282 283 284 283 281 277 275 277 280 282 281 280 284 288 293 296 293 285 281 280
244 246 229 214 219 218 214 220 226 220 207 198 198 203 201 193 188 182 176 178 184 188 186 184 194 212 219 221 245 267 284 299 303 306 311 313 314 315 316 316 317 315 310 308 307 306 307 309 310 309 308 307 307 307 307 307 307 304 300 297 294 292 290 287 283 281 279 276 275 275 276 277 277 277 276 275 276 277 279 281 286 295 305 306 301 301 302
235 244 273 253 244 237 223 221 229 233 226 213 206 207 210 208 204 197 190 187 190 196 193 192 207 221 219 220 248 267 276 281 290 300 305 306 308 311 313 313 314 312 309 307 304 301 301 302 303 304 304 304 305 306 305 307 306 303 301 298 294 291 289 286 285 284 284 282 280 280 280 282 284 283 280 276 275 275 277 279 281 283 288 291 292 293 292
270 327 357 336 301 285 288 278 253 244 242 236 225 219 219 218 215 212 207 199 194 191 190 201 222 236 239 241 254 269 276 281 291 297 301 304 309 312 313 312 311 309 309 307 304 301 300 298 298 298 299 301 302 303 303 304 302 301 300 298 294 292 289 287 287 287 286 284 284 283 282 282 284 285 285 283 280 277 278 284 288 288 287 285 285 285 284
292 306 313 303 291 289 291 292 285 264 247 243 237 230 226 221 218 220 219 214 209 206 206 217 229 238 250 259 267 275 281 287 292 293 298 305 307 307 306 305 304 305 306 306 306 305 304 301 298 296 296 297 298 300 301 300 298 296 295 292 290 288 286 285 285 283 280 278 278 277 276 276 277 280 282 283 283 282 282 285 289 291 289 286 286 286 285
273 285 291 285 277 274 275 274 273 263 249 244 240 234 228 221 217 218 219 219 220 219 223 235 237 236 249 263 272 279 283 286 289 293 297 298 298 297 296 297 299 302 303 304 304 303 302 301 299 297 295 294 294 295 295 295 294 292 290 288 287 287 286 285 284 281 278 276 274 272 271 272 274 276 279 281 285 289 290 289 288 288 286 284 286 288 287
263 271 275 272 268 264 258 255 254 250 245 242 240 236 229 220 215 216 216 217 219 218 222 235 244 249 260 269 273 278 282 284 287 289 289 290 291 292 293 296 299 299 299 299 299 298 298 298 297 296 295 294 293 293 291 290 289 287 286 285 285 284 284 284 283 281 278 275 274 273 271 270 272 274 276 279 283 287 290 290 291 291 290 288 288 289 289
268 260 256 260 260 254 247 245 246 245 242 238 234 233 228 217 209 212 215 214 216 223 231 241 252 257 262 268 273 278 281 283 286 287 288 290 292 294 295 297 296 294 294 294 294 294 294 294 294 294 294 294 294 293 291 288 286 283 281 280 280 279 280 279 278 277 275 273 273 272 271 270 270 271 273 275 276 279 283 286 289 290 290 290 291 291 291
271 264 256 254 253 252 255 258 253 245 243 243 240 235 228 215 201 208 217 215 210 215 223 238 251 253 255 265 276 281 283 284 287 289 291 292 293 294 295 294 292 291 292 290 290 290 291 291 292 292 293 295 296 295 293 290 286 282 279 277 276 276 276 276 275 274 274 273 271 268 266 267 268 268 270 271 273 275 278 279 280 282 284 286 289 289 289
275 277 273 265 257 254 259 266 259 245 239 243 241 234 229 217 200 200 215 220 217 216 220 233 243 246 251 266 277 281 284 289 293 294 294 294 294 294 294 292 291 290 288 287 288 290 290 291 292 293 295 297 298 296 294 290 286 282 279 277 275 274 274 274 275 274 273 271 269 267 266 266 266 267 268 269 270 273 274 273 274 276 280 285 288 288 288
298 284 274 270 264 255 248 247 250 243 233 231 229 226 225 218 202 197 209 217 220 222 227 238 249 261 271 275 278 284 289 294 297 296 294 294 294 294 293 293 292 290 288 288 291 293 294 295 295 295 297 300 301 299 296 291 285 280 277 274 273 273 273 273 273 274 275 274 272 269 268 266 264 263 264 266 267 267 267 267 269 271 273 277 281 283 285
308 287 270 262 261 259 254 248 248 245 236 229 226 222 219 214 204 201 207 214 219 226 233 246 263 278 277 275 282 289 294 295 296 295 294 293 293 293 293 293 292 290 291 294 295 295 295 295 295 297 300 303 304 301 296 291 287 282 278 275 274 273 274 273 270 268 269 270 271 271 270 269 267 264 263 264 267 267 266 265 266 267 269 271 273 276 281
308 300 285 264 252 252 251 250 249 244 237 233 229 223 222 221 210 201 208 214 219 226 235 247 261 266 271 282 289 291 294 295 295 295 294 293 293 294 294 294 293 293 294 295 296 295 293 292 294 298 301 303 304 302 297 294 291 285 280 278 276 274 273 271 268 266 264 262 263 264 265 265 266 265 263 263 263 264 265 265 264 265 266 268 271 274 278
315 313 311 295 263 255 247 237 231 225 219 219 229 235 240 247 244 238 232 225 224 231 240 247 258 267 278 289 289 289 293 296 295 296 297 297 299 301 300 298 298 296 295 295 295 294 292 291 295 299 300 300 303 304 301 297 294 289 284 280 276 273 271 269 267 266 264 260 257 256 256 258 259 260 260 260 260 261 263 263 265 267 268 268 271 274 276
324 315 303 274 244 248 249 245 237 225 201 171 163 220 226 211 218 231 233 226 223 231 241 247 263 273 278 283 287 292 298 301 301 304 307 307 307 308 305 302 299 296 295 296 295 294 294 295 299 303 302 300 302 305 304 299 295 292 289 282 275 270 268 267 264 262 261 260 258 255 254 255 256 257 258 259 259 260 262 262 263 266 268 269 273 276 278
321 314 302 280 251 249 261 262 246 221 192 171 179 202 215 219 219 215 205 211 225 232 249 279 279 279 281 286 293 300 304 306 307 308 308 309 310 310 307 304 301 299 298 298 297 298 300 301 302 306 307 304 300 300 301 300 298 295 294 292 286 277 269 265 264 264 262 262 261 258 257 257 258 259 261 262 261 261 262 263 264 265 267 270 273 276 278
320 316 302 286 270 264 278 272 234 200 187 185 191 194 200 210 210 184 136 164 221 227 231 257 267 274 283 293 301 304 305 308 310 310 310 312 313 312 310 308 305 303 301 302 306 311 311 307 307 312 313 308 301 298 299 301 302 300 298 299 298 290 280 273 270 269 270 269 266 261 259 260 263 264 265 264 264 264 264 265 268 269 270 272 272 274 277
313 311 299 285 275 250 332 320 241 193 185 187 194 196 194 195 190 160 134 160 202 220 233 250 266 279 289 299 304 303 305 311 313 312 314 316 315 314 313 311 310 309 307 311 320 323 316 311 313 317 314 307 303 302 302 303 304 304 301 297 294 292 290 286 280 276 278 280 277 270 263 259 260 263 265 263 264 266 266 265 267 268 269 269 270 272 275
303 300 288 268 239 199 160 9 244 215 198 190 193 194 184 169 164 162 162 173 190 215 234 250 276 286 291 301 305 306 318 331 327 319 318 317 317 318 319 319 321 324 322 323 326 323 315 313 318 318 312 307 305 304 304 304 304 304 301 297 293 292 292 290 286 282 281 282 281 278 273 266 261 261 263 264 265 267 267 267 266 266 267 270 272 274 275
295 289 277 254 224 198 177 206 228 217 204 194 188 177 161 155 163 171 179 180 176 184 223 259 284 290 299 313 315 319 335 342 332 323 322 322 324 325 324 325 331 334 330 327 326 322 318 318 319 315 310 309 310 308 306 306 305 302 299 296 295 293 290 288 287 286 284 282 282 282 279 273 267 263 264 266 267 268 270 271 273 272 271 271 272 272 273
282 280 272 258 238 214 196 206 220 210 194 183 175 165 162 168 172 171 173 169 150 139 184 251 276 302 322 329 326 330 340 340 332 329 329 331 333 331 328 332 341 340 334 331 329 326 323 322 320 315 314 316 316 312 310 309 306 303 299 296 293 291 289 287 286 286 285 285 284 280 277 273 270 268 268 270 272 272 271 272 275 276 275 272 269 269 272
274 275 269 261 251 225 197 207 228 213 184 170 164 163 164 168 171 172 170 155 140 144 179 209 312 342 345 342 334 337 342 341 339 339 338 339 340 336 332 338 344 340 334 333 333 329 328 327 324 320 321 321 319 316 315 312 307 301 296 291 288 285 284 284 284 284 284 286 287 285 282 280 277 275 273 273 273 272 271 270 272 274 275 274 272 272 274
273 274 269 260 240 174 154 190 233 216 187 168 160 161 165 164 165 166 157 142 142 160 161 126 89 18 357 354 344 341 345 346 346 348 347 344 344 342 337 337 338 334 333 335 335 333 333 334 330 325 324 323 320 319 317 312 306 300 297 294 291 288 285 284 284 284 285 288 291 292 289 284 279 276 275 273 272 273 275 276 275 275 274 273 273 274 275
272 269 267 261 238 198 190 199 203 195 184 172 162 162 164 160 153 149 144 140 146 154 143 121 102 49 17 7 352 345 347 345 345 348 344 340 344 352 351 344 339 335 336 338 338 337 337 337 334 329 327 324 322 321 319 313 307 305 303 300 298 296 294 293 293 293 293 296 299 297 292 287 282 280 279 278 277 277 278 277 275 274 274 274 274 275 276
268 263 262 263 249 208 191 190 180 165 160 164 166 163 159 151 144 142 145 146 145 142 135 119 94 54 28 16 5 360 353 342 339 344 344 340 345 357 359 352 346 343 342 342 341 339 339 338 336 333 329 326 325 324 323 319 315 314 312 309 307 307 306 304 302 303 305 309 309 304 298 293 290 288 287 286 284 279 275 272 273 275 276 277 277 276 277
260 262 260 257 236 187 179 184 175 158 150 155 163 161 154 146 140 140 143 144 141 140 139 127 101 62 37 28 21 10 357 346 345 350 350 346 345 349 353 354 351 347 344 342 341 340 341 340 339 337 335 333 331 330 332 334 332 328 328 331 332 329 326 325 323 322 322 322 319 315 310 304 301 299 296 291 286 280 274 272 275 277 277 277 279 281 282
249 256 253 243 208 173 170 169 160 154 153 156 157 154 147 141 139 143 146 144 140 139 136 126 108 73 42 32 20 6 2 13 19 9 0 353 347 347 351 355 354 348 344 343 342 343 344 344 343 342 343 342 340 338 343 350 352 350 349 352 354 353 351 350 347 344 341 339 335 331 326 321 316 312 306 300 295 289 279 272 273 276 278 279 282 285 289
232 248 250 224 176 163 154 139 136 146 157 157 151 147 145 143 143 144 144 141 138 135 129 123 115 96 72 48 25 8 2 6 17 19 11 1 353 352 356 360 359 353 350 349 349 351 351 349 347 347 349 350 350 350 352 355 359 5 7 6 6 7 8 7 6 5 5 4 0 356 353 345 333 320 313 311 310 301 287 275 270 272 279 292 307 328 5
244 256 252 197 158 152 144 135 138 154 163 155 146 145 146 146 146 145 143 143 143 135 129 129 124 101 80 32 29 28 13 359 359 9 10 3 357 357 1 6 6 1 357 356 356 358 359 356 352 352 354 355 356 359 359 357 359 7 12 11 11 15 17 16 16 17 19 19 17 14 12 9 1 350 343 344 344 331 321 316 313 302 290 318 65 66 67
298 226 141 122 126 132 133 138 151 162 158 149 146 146 146 149 151 149 147 151 153 145 138 141 139 133 213 262 341 41 28 5 355 0 5 3 0 358 358 3 9 9 5 2 1 2 1 359 357 358 360 1 2 4 5 4 5 11 16 17 18 21 22 21 20 21 23 25 25 24 23 22 21 20 21 23 25 29 37 46 54 62 74 85 89 87 85
59 85 105 112 118 128 138 150 161 157 149 149 152 151 152 157 158 153 152 159 160 150 143 139 119 96 307 289 327 4 5 359 360 0 359 359 1 1 1 4 13 18 13 7 5 5 3 1 1 4 6 7 7 9 11 12 15 19 24 27 28 27 26 25 25 27 28 28 27 28 28 28 30 34 37 37 39 46 55 60 64 72 79 84 86 87 87
74 82 102 119 132 143 148 152 152 149 151 156 157 156 159 164 158 149 151 158 152 137 133 119 78 45 16 358 354 350 350 359 7 6 357 354 357 3 6 11 23 32 26 15 11 10 7 5 7 13 15 14 14 16 18 20 22 25 29 32 32 32 32 35 37 38 38 37 37 38 38 37 38 42 45 46 48 52 57 61 66 71 75 77 81 83 83
92 86 95 113 127 137 140 141 145 150 154 156 155 156 163 167 158 146 145 149 150 149 144 108 59 31 11 6 6 5 3 0 358 357 357 353 353 358 2 6 14 27 33 30 27 24 17 11 13 20 23 23 23 24 25 26 26 28 30 32 33 34 37 41 43 44 45 45 46 46 45 43 44 47 50 53 56 59 61 64 66 69 70 72 75 78 80
Height
780 776 775 772 769 769 770 770 770 768 765 766 765 763 762 762 770 791 798 794 798 801 796 799 801 798 800 801 799 799 800 801 803 803 804 804 805 807 808 809 809 809 809 810 809 809 808 807 807 806 807 807 806 806 805 804 805 806 806 806 805 805 804 804 804 805 806 808 809 811 813 814 816 817 817 818 819 821 823 824 826 828 829 830 832 834 836
784 780 778 775 773 774 774 772 770 769 766 765 765 763 762 761 765 778 789 796 799 797 796 799 800 798 801 802 801 801 802 803 804 805 805 805 806 808 810 811 811 811 812 812 813 812 811 811 811 810 810 810 809 808 807 806 807 806 806 807 806 806 805 805 806 807 808 809 809 811 812 813 815 816 817 818 818 819 820 822 823 825 826 828 829 830 832
788 783 780 778 778 776 775 774 772 769 768 767 766 766 764 767 776 780 786 799 804 796 792 797 800 801 803 805 807 807 806 807 807 807 808 808 809 810 811 812 813 813 814 814 815 814 814 814 814 814 814 813 813 812 810 809 809 808 807 806 806 806 806 806 807 808 810 812 812 812 813 813 815 816 817 817 818 818 819 820 822 823 825 825 826 827 829
791 785 784 782 779 777 779 779 775 772 771 769 768 769 768 775 790 795 795 804 807 797 793 798 802 803 806 810 811 811 811 810 810 811 811 811 811 811 812 813 814 814 814 815 816 816 816 815 815 815 815 815 815 814 813 812 811 809 808 807 806 806 806 807 809 809 811 814 815 815 815 815 815 815 816 817 817 818 819 819 820 821 823 824 824 825 826
789 784 787 785 784 789 789 779 772 772 772 772 773 775 773 775 786 796 801 803 800 797 798 803 804 805 808 810 811 813 815 813 812 813 813 813 813 813 813 814 815 816 815 815 816 817 817 817 816 815 815 815 816 815 814 813 811 810 810 809 809 808 808 808 809 810 811 813 814 815 815 815 815 815 816 816 817 817 818 818 820 820 821 822 823 824 824
787 785 789 792 796 802 793 776 769 772 774 775 778 779 779 779 781 784 790 795 797 800 803 804 805 806 808 810 811 810 812 814 815 815 815 815 815 814 815 815 815 817 816 816 817 817 818 818 817 816 816 816 816 816 815 814 812 811 811 810 810 810 810 810 810 810 811 811 813 814 814 815 816 816 816 816 816 817 817 818 818 819 820 820 821 822 822
783 784 795 807 810 801 787 777 775 777 776 776 778 781 781 781 782 785 791 796 799 802 803 804 806 807 809 812 811 809 812 815 816 816 817 817 816 816 817 817 817 818 818 817 818 817 817 817 817 816 816 816 816 816 815 815 814 813 812 811 811 811 811 811 811 812 811 811 813 814 815 816 817 818 818 817 817 819 820 820 819 818 819 819 818 819 819
786 791 800 809 808 795 786 785 783 782 782 782 786 792 790 784 784 791 796 798 798 800 803 806 808 808 808 810 811 812 814 816 816 817 818 818 818 818 818 818 819 820 819 819 819 818 818 817 817 817 817 816 816 816 815 815 815 814 813 813 813 812 812 813 813 814 813 812 813 814 814 815 814 815 816 815 815 818 820 820 819 818 818 816 815 815 815
789 793 791 792 798 799 795 793 788 784 785 785 788 795 794 788 785 788 795 799 798 800 803 804 805 805 806 810 812 812 814 816 817 818 818 819 820 819 819 819 820 820 821 821 820 820 819 818 818 818 818 818 817 817 816 815 815 814 814 814 814 813 813 812 812 813 813 813 813 813 813 813 813 813 813 812 812 814 814 814 814 815 815 813 812 811 811
788 791 791 790 799 802 794 789 786 784 785 784 786 794 797 793 788 788 795 800 800 800 803 804 806 807 809 812 813 812 813 814 816 817 819 820 820 820 821 821 820 821 822 822 821 821 819 819 819 819 819 819 818 818 818 816 815 814 814 814 814 813 812 812 811 812 813 813 814 813 813 813 814 814 814 813 812 811 810 809 810 811 812 811 809 808 807
790 795 798 794 796 798 792 788 787 787 787 786 789 799 801 794 789 790 794 800 802 800 800 803 807 811 812 813 814 814 814 815 816 818 819 820 821 822 822 822 822 823 823 823 822 821 819 820 820 820 819 819 819 819 818 817 816 815 814 814 814 813 813 812 811 812 812 812 813 813 812 812 813 813 813 812 810 810 808 808 809 809 808 807 805 804 804
793 796 796 788 790 795 792 790 789 787 787 789 799 810 806 793 791 794 795 799 803 800 799 804 809 811 812 815 817 815 814 816 818 819 820 821 822 823 822 823 824 825 824 823 822 821 820 821 821 820 820 820 819 820 819 818 817 816 815 815 814 814 813 812 811 812 812 812 812 812 812 811 810 811 811 808 807 808 807 808 808 807 805 803 801 801 801
791 795 795 788 791 796 791 788 789 788 790 797 807 813 803 792 793 798 796 797 802 804 806 809 809 808 811 816 816 815 816 818 819 820 821 822 822 823 823 824 825 825 824 823 823 822 822 822 821 820 820 820 820 820 820 819 818 817 817 816 815 814 813 812 812 812 811 812 812 812 811 810 809 810 809 808 807 807 806 807 806 805 802 801 799 798 798
791 792 793 790 793 795 789 788 790 790 797 806 807 805 799 795 798 802 801 800 803 808 811 811 809 810 812 814 815 816 818 820 821 822 822 822 823 824 824 824 824 824 824 823 824 823 822 822 822 821 820 820 820 820 820 819 818 817 817 816 815 814 813 812 812 811 811 811 812 812 811 810 809 808 808 808 807 806 806 806 804 803 801 799 797 796 796
792 795 798 800 801 795 789 790 794 795 800 804 802 800 800 800 801 805 805 805 807 810 811 811 811 813 814 814 816 818 819 820 821 822 823 824 824 824 824 824 824 824 824 824 824 823 823 823 822 821 821 821 820 820 819 819 818 818 817 816 815 814 813 812 812 811 811 811 811 811 810 810 809 808 807 806 806 805 805 804 802 800 798 797 796 795 794
791 797 800 800 797 791 788 791 794 794 795 796 796 799 801 802 804 806 806 807 809 811 811 812 813 815 815 816 817 818 819 820 821 822 823 824 825 825 825 825 824 825 825 824 823 823 822 822 822 822 821 821 820 820 819 818 818 817 816 816 815 814 813 812 811 810 810 809 809 808 808 808 808 807 806 805 804 803 803 802 799 796 795 794 794 793 792
788 791 792 792 789 787 787 790 791 792 794 795 797 799 801 802 804 804 805 808 811 812 814 815 815 816 816 817 817 818 819 819 820 822 824 825 826 826 826 825 825 826 825 824 823 823 822 822 822 821 820 820 819 819 819 818 818 817 816 815 814 813 812 811 810 809 808 808 808 807 806 806 806 805 804 804 803 802 800 799 796 794 793 792 791 790 790
787 786 786 787 788 788 788 789 791 793 796 796 798 800 801 802 803 804 806 808 811 813 815 816 816 817 817 818 819 820 820 820 821 823 824 825 826 827 827 827 827 826 825 823 823 822 821 821 821 820 820 819 818 818 818 817 817 816 815 814 813 813 812 810 809 808 807 806 806 805 805 804 803 803 802 801 801 800 798 797 794 792 791 790 789 789 788
793 792 787 784 788 789 788 790 792 794 796 797 798 800 800 801 803 805 807 809 812 814 816 817 818 818 819 820 821 821 822 823 823 824 824 825 826 827 827 828 828 827 825 824 822 821 821 821 820 820 820 819 818 817 817 816 815 815 814 813 812 811 810 809 808 807 806 804 803 803 803 802 801 800 799 799 798 797 796 794 793 791 789 788 787 787 786
792 791 786 785 787 787 787 789 791 793 796 797 798 799 800 801 804 806 808 811 812 813 815 817 818 819 820 821 822 822 823 824 824 824 825 825 825 826 826 827 828 828 827 825 824 822 821 820 820 820 819 818 818 817 816 815 814 813 812 812 811 809 808 807 806 805 804 803 802 800 799 799 798 797 797 797 796 795 794 793 791 789 788 787 785 785 784
790 786 785 786 789 789 788 788 789 789 792 795 797 799 801 802 804 806 808 810 812 813 815 816 818 819 820 821 822 823 823 824 824 825 825 824 824 824 825 825 826 826 827 826 826 824 822 821 820 819 818 818 817 816 815 814 813 812 811 810 809 808 807 805 804 803 802 800 799 798 796 795 795 795 795 795 794 793 792 791 790 789 788 787 785 785 784
789 785 786 789 792 792 789 786 787 788 788 791 795 798 800 802 804 806 808 810 812 813 814 816 817 819 820 821 822 823 823 824 825 824 824 824 824 823 823 823 823 824 824 825 825 824 823 821 820 818 817 816 816 815 815 814 812 811 810 809 807 806 805 803 802 801 799 798 796 796 795 794 793 792 791 791 790 789 788 787 787 787 787 786 785 785 784
788 785 789 791 792 793 789 786 788 788 787 789 791 794 797 800 802 804 807 809 811 813 815 816 818 819 820 821 822 822 823 823 824 824 824 824 823 823 823 823 822 822 822 822 822 822 822 821 820 819 817 815 814 814 813 813 812 811 809 808 806 804 803 802 801 800 799 797 796 795 794 793 792 790 788 787 786 785 784 783 782 783 783 782 782 783 783
793 789 791 792 793 795 793 790 790 789 789 789 790 790 793 797 799 802 805 807 809 811 813 814 816 818 820 820 821 821 822 823 823 824 824 824 824 824 823 822 822 821 820 819 819 819 819 820 819 818 817 816 814 813 812 811 811 809 808 807 805 803 802 800 800 799 798 797 796 795 793 792 791 789 787 784 782 780 780 779 778 778 778 778 778 779 779
795 792 792 792 792 793 793 791 790 790 789 789 789 790 792 795 797 800 803 805 808 810 811 812 814 816 818 818 819 821 822 822 823 824 824 824 824 824 822 821 821 820 819 818 818 817 817 817 817 817 816 815 814 813 811 810 809 808 807 806 804 802 800 799 798 797 796 795 794 792 791 790 788 787 785 782 779 777 776 775 774 773 774 774 774 775 775
793 793 793 793 791 790 791 791 791 790 789 789 789 789 791 793 796 799 801 804 807 809 810 811 812 814 815 817 818 820 821 822 823 823 823 823 822 822 821 820 820 820 819 818 817 816 816 815 814 814 813 813 812 811 810 809 808 806 805 803 802 801 799 798 796 795 794 793 791 790 788 787 786 785 783 781 779 776 774 772 771 770 769 769 770 770 770
791 791 792 793 792 789 788 788 788 788 788 788 788 789 791 793 796 798 800 803 806 808 809 810 811 813 814 815 817 818 819 820 821 821 821 821 821 820 820 820 820 820 819 818 817 816 815 813 812 811 810 810 810 809 808 807 805 804 802 801 799 798 797 796 795 793 791 790 789 787 786 785 783 782 781 779 778 775 773 771 769 767 766 766 766 766 765
790 789 790 790 789 787 786 786 787 787 787 788 788 789 790 792 795 798 800 801 804 806 808 810 811 811 812 814 816 817 818 818 819 820 820 820 820 820 820 820 820 819 818 817 816 815 813 812 810 809 808 807 807 806 805 804 802 801 799 798 796 795 794 793 792 790 789 787 786 785 784 782 781 780 779 777 775 774 772 770 768 766 764 763 763 763 762
790 790 791 790 788 785 786 787 787 786 787 789 789 790 790 790 793 797 799 800 802 804 806 808 808 807 808 812 815 816 816 817 817 819 820 820 820 820 819 819 818 818 817 815 814 813 812 811 809 807 806 805 804 803 802 801 799 798 796 795 793 792 791 790 789 788 786 784 783 782 781 780 778 777 776 775 773 772 770 768 766 764 762 761 760 760 759
790 791 792 791 789 786 785 786 787 787 787 787 788 789 790 789 791 795 797 798 800 801 803 804 803 804 807 811 813 814 815 816 817 818 819 819 819 818 818 817 817 815 814 813 812 811 810 809 807 806 804 803 802 801 799 797 796 794 793 792 791 789 789 788 788 786 784 782 780 779 777 776 775 774 773 771 770 769 768 766 764 762 760 759 758 757 756
790 789 789 789 789 787 785 785 787 787 786 786 786 787 787 787 789 793 796 797 799 800 801 801 802 804 808 811 812 813 815 816 816 817 817 817 817 817 816 816 815 814 812 811 811 810 809 808 806 804 803 802 800 798 796 794 792 791 790 789 788 786 786 786 785 784 783 781 778 776 775 773 772 771 769 768 767 766 764 762 761 759 758 756 755 754 754
787 786 786 787 788 788 786 785 786 786 787 787 788 788 787 788 790 793 796 797 798 799 799 800 803 806 809 810 812 813 814 815 815 815 815 815 815 814 814 814 813 812 811 810 810 809 808 806 804 803 802 801 799 797 794 792 790 789 787 786 785 784 783 782 782 781 779 777 776 774 772 771 769 768 766 765 763 762 760 759 757 756 755 753 752 752 752
787 786 787 788 789 789 787 785 785 786 788 789 790 791 792 793 794 796 797 797 797 797 798 801 804 807 809 810 812 813 813 813 813 813 813 813 813 813 813 813 812 811 810 809 808 807 805 804 803 802 800 799 797 795 793 790 788 787 785 784 782 781 780 779 778 776 774 772 771 769 768 767 765 764 762 760 759 758 756 755 754 753 751 750 749 749 749
787 786 786 786 788 788 786 784 784 785 788 790 792 794 796 797 798 798 797 796 796 797 799 802 805 807 809 810 811 812 812 812 812 812 812 812 812 812 812 812 811 810 809 807 806 805 803 802 801 800 799 797 796 793 791 788 786 784 783 781 779 778 776 774 773 772 769 767 765 764 764 762 761 759 758 756 755 754 752 751 751 750 749 747 747 746 747
785 785 784 783 784 784 784 784 784 785 787 790 792 794 797 798 797 796 796 796 796 799 801 804 806 808 809 810 811 811 811 812 812 812 812 812 812 812 812 811 810 808 806 805 804 803 801 800 799 798 796 795 793 791 788 786 784 782 780 778 776 774 772 770 769 767 765 763 762 761 760 758 757 756 754 753 752 751 749 749 748 747 746 745 745 744 744
784 783 782 782 782 782 783 784 785 785 786 788 790 792 795 795 794 794 796 797 799 801 803 805 807 808 809 810 811 811 811 811 811 812 812 812 812 811 810 809 808 806 804 803 802 801 800 799 798 796 795 792 790 788 786 784 782 779 777 775 773 771 769 767 765 764 762 760 759 757 756 755 754 753 752 751 749 748 747 746 745 745 744 744 743 742 741
784 782 782 781 781 782 783 784 785 785 786 788 790 791 791 791 791 794 796 799 801 803 804 806 807 808 809 810 811 811 811 811 811 811 811 811 811 810 809 808 806 804 802 801 800 800 799 797 796 794 792 790 787 785 783 781 780 777 775 772 770 768 766 764 762 760 759 757 756 755 753 751 749 749 748 748 746 745 744 743 742 742 742 742 741 740 738
784 782 781 781 782 782 782 783 786 787 788 788 790 790 789 790 792 795 797 799 802 803 805 806 808 808 809 810 810 809 810 810 810 811 811 810 810 808 807 805 804 803 802 801 800 799 797 795 794 792 790 787 785 783 781 779 778 775 772 770 768 765 763 761 759 757 755 754 753 752 750 747 745 744 744 744 743 742 741 740 740 740 740 740 739 738 737
783 782 781 780 781 781 781 783 786 787 787 787 787 788 789 792 794 796 798 800 802 804 805 807 808 808 809 809 809 809 809 810 811 811 810 809 808 807 805 804 803 802 802 800 799 797 795 793 792 790 787 785 783 781 779 777 775 773 770 768 765 763 761 759 757 755 753 751 750 748 747 745 743 741 741 741 740 740 739 739 738 738 738 738 738 737 735
783 781 780 779 779 779 780 783 784 784 784 784 785 787 790 793 794 796 798 800 802 805 806 807 808 808 808 808 809 809 810 810 811 810 809 808 806 805 804 802 802 802 801 799 797 795 793 792 790 788 786 784 782 780 778 775 773 771 768 766 764 761 759 757 755 753 751 749 747 746 744 743 741 740 739 738 738 738 738 737 737 736 736 737 736 735 734
781 780 779 779 778 778 780 782 783 783 783 784 787 789 791 793 795 796 798 801 803 805 806 807 807 808 808 809 809 809 809 810 810 809 808 806 805 804 803 802 802 801 800 798 796 794 792 791 789 787 785 783 781 779 776 774 771 769 766 764 762 759 757 755 753 751 749 747 746 744 742 741 739 738 737 737 737 737 736 736 735 735 735 735 735 734 732
779 779 778 778 778 779 781 782 783 784 784 786 788 790 792 793 795 797 799 801 804 805 806 807 808 808 808 808 808 809 809 809 808 808 807 806 805 804 803 802 802 801 799 797 795 793 792 790 789 787 785 783 780 778 775 773 770 767 764 762 759 757 755 753 751 749 748 746 744 742 741 740 739 738 737 736 736 735 735 735 735 735 735 734 734 733 731
779 778 778 777 778 779 780 781 783 784 785 786 788 790 791 793 795 797 800 802 804 805 806 807 808 808 808 808 808 808 808 808 807 807 806 805 805 804 803 802 801 800 799 797 795 793 792 790 789 787 785 783 780 777 774 771 768 765 763 761 758 756 753 751 749 747 746 744 742 741 741 740 739 738 737 736 735 734 734 734 734 734 734 733 733 731 729
777 777 776 776 776 776 778 780 782 783 785 788 790 791 792 793 796 798 800 802 804 805 806 807 807 808 808 808 808 808 807 807 807 806 805 804 803 803 802 802 801 799 798 797 795 793 792 790 789 787 785 782 779 776 773 770 767 765 762 760 757 755 753 750 748 746 744 743 742 741 741 740 739 738 737 735 734 734 733 734 734 734 733 732 731 730 728
775 775 775 775 775 775 777 779 781 783 786 789 791 792 793 794 796 799 801 802 804 805 806 806 807 807 808 808 807 807 807 807 806 805 804 803 802 802 802 801 801 799 798 797 795 794 792 790 788 786 784 781 778 775 772 770 767 765 762 760 757 755 753 750 748 746 745 743 742 742 741 740 739 738 737 736 735 734 733 733 733 733 732 731 730 728 727
772 773 773 773 774 776 777 779 781 784 787 790 792 793 794 795 797 799 801 802 803 804 805 806 807 807 807 807 807 807 806 805 805 805 804 803 803 802 801 801 800 799 798 797 795 794 792 790 788 785 782 779 777 774 772 770 768 765 763 760 758 756 754 752 749 747 746 744 743 742 741 740 740 739 738 736 735 734 734 733 733 732 731 730 729 727 726
771 772 772 772 775 777 779 780 782 785 788 789 791 792 794 796 798 800 801 802 803 804 805 806 807 807 807 807 807 807 805 804 804 804 804 803 802 802 801 800 800 799 798 796 795 794 792 790 787 784 781 779 776 774 772 770 768 766 764 762 760 758 756 754 751 749 747 746 745 743 742 741 740 739 738 737 736 735 734 733 732 731 731 729 728 727 726
772 772 772 773 775 778 779 781 785 787 788 789 790 792 794 796 798 800 801 802 803 803 804 805 806 807 807 807 806 806 806 805 804 803 804 803 802 801 801 800 800 799 798 796 795 794 792 790 787 784 781 779 777 775 773 771 770 768 766 764 762 760 758 756 754 751 749 748 746 745 744 742 741 740 739 738 737 736 734 733 732 731 730 729 728 727 726
773 773 773 775 777 779 781 784 786 787 788 790 791 793 795 797 798 799 800 801 801 802 803 804 805 806 806 806 805 805 806 806 805 804 803 803 802 802 801 800 800 799 798 796 795 794 792 790 788 785 783 781 779 777 775 773 771 770 768 766 764 762 760 758 756 754 752 750 748 747 746 744 743 741 740 739 738 736 735 734 733 732 731 730 729 727 726
776 776 777 779 780 782 784 786 787 787 789 791 792 793 795 796 797 797 799 800 799 800 801 802 803 804 805 805 805 805 805 805 805 804 803 803 802 801 800 800 799 799 798 797 795 794 793 791 789 786 784 783 781 779 777 775 773 772 770 768 766 764 762 760 758 756 754 753 751 749 748 746 745 743 742 740 739 738 736 735 734 733 732 731 729 728 727
782 782 782 783 784 785 786 786 787 788 789 790 791 792 794 795 795 796 798 798 799 799 800 801 802 803 803 804 804 804 805 805 805 804 803 802 801 801 800 800 799 798 798 797 796 795 794 792 790 788 786 784 783 781 779 777 776 774 772 770 768 766 764 762 760 758 757 755 754 752 750 749 747 745 744 742 741 740 738 737 736 735 733 732 731 730 729
787 787 786 787 787 787 787 787 788 789 790 791 791 793 794 795 795 796 797 799 799 800 800 801 801 802 802 803 803 803 804 804 804 803 803 802 802 801 800 799 799 798 798 797 797 796 795 793 791 789 788 786 785 783 781 779 777 776 774 772 770 768 766 764 763 761 760 758 756 755 753 751 750 748 746 745 744 742 741 739 738 736 735 734 733 731 730